Location: Champseau
(45.8333°N, 1.7667°E)
Time: 04:48:03
(UTC+00:00)

Lacrosse 5 rocket - Pass Details

Date: 18 April 2021
Orbit: 460 x 634 km, 57.0° (Epoch: 10 May)

Event Time Altitude Azimuth Distance (km) Brightness Sun altitude
Rises 21:04:19 0° 295° (WNW) 2,716 6.1 -21.7°
Reaches altitude 10° 21:07:05 10° 315° (NW) 1,860 5.2 -22.0°
Maximum altitude 21:10:03 18° 360° (N) 1,437 3.9 -22.4°
Drops below altitude 10° 21:13:09 10° 44° (NE) 1,934 4.1 -22.8°
Enters shadow 21:14:18 - 54° (NE) 2,272 4.4 -22.9°
